Hourly Data Report for October 29, 2015

All times are specified in Local Standard Time (LST). Add 1 hour to adjust for Daylight Saving Time where and when it is observed.

MONCTON INTL A
NEW BRUNSWICK

46°06'44.000" N
64°40'43.000" W
70.70 m
8103201
71705
YQM

Download Data

Hourly Data (October 2015)
Hourly Data Report for October 29, 2015
Temp Definition
°C
Dew Point Temp Definition
°C
Rel Hum Definition
%
Wind Dir Definition
10's deg

Wind Spd Definition
km/h
Visibility Definition
km
Stn Press Definition
kPa
Hmdx Definition


Wind Chill Definition


Weather Definition


TIME
00:00 Legend Double Dagger 6.6 2.7 76 17 9 24.1 101.72     LegendNANA
01:00 Legend Double Dagger 6.2 4.5 89 17 16 12.9 101.60     Rain Showers
02:00 Legend Double Dagger 5.8 4.6 92 15 19 11.3 101.43     Moderate Rain Showers
03:00 Legend Double Dagger 5.7 4.7 93 13 24 16.1 101.18     Rain Showers
04:00 Legend Double Dagger 6.0 4.8 92 11 21 24.1 100.93     LegendNANA
05:00 Legend Double Dagger 6.0 5.0 93 11 19 24.1 100.61     Rain Showers
06:00 Legend Double Dagger 7.9 6.9 93 13 30 24.1 100.43     Rain Showers
07:00 Legend Double Dagger 8.9 8.0 94 14 25 16.1 100.12     Rain Showers
08:00 Legend Double Dagger 10.7 9.8 94 15 31 12.9 99.91     Rain Showers
09:00 Legend Double Dagger 12.4 11.3 93 15 36 12.9 99.68     Rain
10:00 Legend Double Dagger 13.6 12.7 94 16 43 12.9 99.44     Rain
11:00 Legend Double Dagger 14.7 13.8 94 16 29 9.7 99.25     Rain,Fog
12:00 Legend Double Dagger 15.4 14.5 94 18 33 12.9 99.14     Rain,Fog
13:00 Legend Double Dagger 16.6 15.3 92 17 34 19.3 98.96     Rain
14:00 Legend Double Dagger 17.2 16.2 94 18 31 12.9 98.79     Cloudy
15:00 Legend Double Dagger 17.0 16.5 97 18 15 24.1 98.76     Rain
16:00 Legend Double Dagger 18.3 16.5 89 21 39 24.1 98.64     LegendNANA
17:00 Legend Double Dagger 17.8 15.8 88 21 30 24.1 98.61     Mostly Cloudy
18:00 Legend Double Dagger 17.2 15.2 88 19 25 24.1 98.48     LegendNANA
19:00 Legend Double Dagger 16.9 14.9 88 19 23 24.1 98.45     LegendNANA
20:00 Legend Double Dagger 16.4 14.4 88 20 25 24.1 98.40     Mostly Cloudy
21:00 Legend Double Dagger 16.3 13.6 84 20 41 24.1 98.37     LegendNANA
22:00 Legend Double Dagger 14.8 12.5 86 21 27 24.1 98.37     LegendNANA
23:00 Legend Double Dagger 14.9 12.1 83 22 23 24.1 98.38     Cloudy

Notes on Data Quality.

Legend

  • E = Estimated
  • M = Missing
  • NA = Not Available
  • ‡ = Partner data that is not subject to review by the National Climate Archives
Date modified: